DELTA 1 R/B, 4354

Orbit data source: Space-Track

DELTA 1 R/B, 4354 is space debris in HEO originally from a launch on Fri, 20 Mar 1970 UTC launched from the Air Force Eastern Test Range (AFETR). Debris objects in space refer to the collection of defunct objects orbiting the Earth. Examples of debris include non-operational satellites, rocket bodies, and fragments generated from explosions, collisions, or faulty payload assembly.

Loading next visibility...
Identifier
4354, 1970-021B
Orbit
HEO
Country
Flag of USUS
Related business
Manufacturer
Thiokol/TE
Mission
Spacecraft
Bus & Motor
STAR 37, Unknown motor
Mass
65 kg wet, 65 kg dry
Launch date (UTC)
1970-03-20 (56 years ago)
Launch vehicle
Unknown
Launch site
Air Force Eastern Test Range (AFETR)
Object type
Payload
Rocket body
Debris
Shape & HBR
Sphere + Cone, 0.5 m
Radar Cross Section
0.734 m², Large (>1 m²)

Expand to show TLE details & history
Last TLE update: 18 hours ago

TLE from 18 hours ago
0 DELTA 1 R/B
1 04354U 70021B   25261.02999921  .00002736  00000-0  11436-2 0  9998
2 04354  25.2532 128.7310 6313855 182.9419 169.9810  3.55411050368830
Epoch: 2025-09-18T00:43Z
TLE epoch observation values (Epoch: 2025-09-18T00:43:11.931Z)
Latitude
-0.00001°
Longitude
120.7518°
Altitude
23,141.924 km
Speed
2.243 km/s
True Right ascension
08h 34m 59s
True Declination
0° 00' 00"
Sunlit
Object was in daylight at epoch
Visualization orbit readout
Latitude
Unknown
Longitude
Unknown
Altitude
Unknown
Speed
Unknown
Apparent Right ascension
Unknown
Apparent Declination
Unknown
Sunlit
N/A
Visualization observer readout
Local Sidereal Time
11:34:25
Azimuth
Unknown
Elevation
Unknown
Doppler factor
Unknown
Orbital elements
Apogee altitude
23,217.571 km
Perigee altitude
309.067 km
Semi-major axis
18,141.456 km
Eccentricity
0.63139
Inclination
25.2532°
RAAN
128.731°
Arg. of periapsis
182.9419°
True anomaly
177.07638°
Mean anomaly
169.981°
Eccentric anomaly
173.85404°
Mean motion
0.88825 °/min
Orbital period
405.29 mins
BSTAR
0.0011436
Loading maneuver chart data...
Computing Atmospheric mass density...
Loading historical data...
Loading historical data...
Loading historical data...
Loading historical data...
Loading historical data...
Loading historical data...
Loading historical data...
Other satellites on launch #21 in the year 1970 (1970-03-20 UTC)

Documentation

Showing up to 5 results
|